Weather Service Report


890 
ASUS44 KMEG 300010
RWRTN 
TENNESSEE HOURLY STATE WEATHER ROUNDUP
NATIONAL WEATHER SERVICE MEMPHIS TN
700 PM CDT FRI APR 29 2016

TNZ002-004-019-021-049-052-054-088>092-300100-
WEST TENNESSEE
  
CITY           SKY/WX    TMP DP  RH WIND       PRES   REMARKS
MEMPHIS INTL   CLOUDY    67  61  81 SE12G20   29.85F                  
NWS MEMPHIS      N/A     64 N/A N/A MISG        N/A                   
JACKSON        CLOUDY    64  59  83 E8        29.89F                  
DYERSBURG      CLOUDY    64  59  82 SE8         N/A                   
UNION CITY     MOCLDY    63  61  94 E6        29.89F                  
LEXINGTON      MOCLDY    64  57  77 SE6       29.92F                  
$$

TNZ008-025-027-028-033-062-065-066-300100-
NORTH MIDDLE TENNESSEE
  
CITY           SKY/WX    TMP DP  RH WIND       PRES   REMARKS
NASHVILLE      CLOUDY    68  61  78 SE6       29.95F                  
CLARKSVILLE    MOCLDY    64  60  87 SE3       29.95F                  
SMYRNA         CLOUDY    70  61  73 E6        29.96F                  
COOKEVILLE     CLEAR     70  61  73 CALM      29.99S                  
CROSSVILLE     CLOUDY    72  48  42 N3        30.04S                  
$$

TNZ061-075-076-078-094-096-097-300100-
SOUTH MIDDLE TENNESSEE
  
CITY           SKY/WX    TMP DP  RH WIND       PRES   REMARKS
FAYETTEVILLE   CLOUDY    64  59  82 CALM      30.01F HAZE             
TULLAHOMA      CLEAR     68  57  68 W14       30.05R                  
WINCHESTER     CLEAR     72  55  56 NW10      30.04R                  
MCMINNVILLE    CLEAR     72  59  64 CALM      30.02R                  
COLUMBIA         N/A    N/A N/A N/A SE3       29.95F                  
SHELBYVILLE    MOCLDY    68  63  83 S5        30.02F                  
$$

TNZ017-018-042-046-047-300100-
NORTHEAST TENNESSEE
  
CITY           SKY/WX    TMP DP  RH WIND       PRES   REMARKS
TRI CITIES     CLOUDY    72  53  51 SW7       30.01R                  
$$

TNZ012-013-036-069-073-074-300100-
CENTRAL EAST TENNESSEE
  
CITY           SKY/WX    TMP DP  RH WIND       PRES   REMARKS
KNOXVILLE      CLOUDY    76  53  44 NE3       29.98F                  
OAK RIDGE      CLOUDY    75  58  55 CALM      30.00S                  
MORRISTOWN     CLEAR     73  52  46 CALM      30.00S                  
$$

TNZ083-085-099-300100-
SOUTHEAST TENNESSEE
  
CITY           SKY/WX    TMP DP  RH WIND       PRES   REMARKS
CHATTANOOGA    CLOUDY    75  57  53 W5        29.98R                  
$$

SKY/WX REPORTED AS FAIR MEANS FEW OR NO CLOUDS BELOW
12 THOUSAND FEET.

  


892 
ASUS44 KMEG 300010
RWRMEG
MEMPHIS CWA HOURLY WEATHER ROUNDUP
NATIONAL WEATHER SERVICE MEMPHIS TN
700 PM CDT FRI APR 29 2016

...WEST TENNESSEE...
  
CITY           SKY/WX    TMP DP  RH WIND       PRES   REMARKS
MEMPHIS INTL   CLOUDY    67  61  81 SE12G20   29.85F                  
6HR MIN TEMP:  61; 6HR MAX TEMP:  67; 6HR PCP:  0.51;                

NWS MEMPHIS      N/A     64 N/A N/A MISG        N/A                   
JACKSON        CLOUDY    64  59  83 E8        29.89F                  
6HR MIN TEMP:  62; 6HR MAX TEMP:  66;                                

LEXINGTON      MOCLDY    64  57  77 SE6       29.92F                  
DYERSBURG      CLOUDY    64  59  82 SE8         N/A                   
6HR MIN TEMP:  61; 6HR MAX TEMP:  64;                                

UNION CITY     MOCLDY    63  61  94 E6        29.89F                  


...EASTERN ARKANSAS...
  
CITY           SKY/WX    TMP DP  RH WIND       PRES   REMARKS
JONESBORO      CLOUDY    65  62  90 E8        29.84S                  
6HR MIN TEMP:  58; 6HR MAX TEMP:  65; 6HR PCP:  0.50;                

WEST MEMPHIS   CLOUDY    65  64  97 SE13      29.82F                  
6HR MIN TEMP:  60; 6HR MAX TEMP:  66; 6HR PCP:  0.54;                

BATESVILLE     CLOUDY    64  61  88 E7        29.82F                  
6HR MIN TEMP:  57; 6HR MAX TEMP:  64;                                

NEWPORT        CLOUDY    67  65  93 SE7       29.84F                  
6HR MIN TEMP:  57; 6HR MAX TEMP:  67; 6HR PCP:  0.14;                

WALNUT RIDGE   CLOUDY    64  59  82 E10       29.85S                  
6HR MIN TEMP:  55; 6HR MAX TEMP:  64; 6HR PCP:  0.11;                

BLYTHEVILLE    CLOUDY    66  60  81 SE13      29.86F                  
6HR MIN TEMP:  60; 6HR MAX TEMP:  66; 6HR PCP:  0.73;                

SEARCY         CLOUDY    66  64  94 E5        29.81F                  
6HR MIN TEMP:  57; 6HR MAX TEMP:  66; 6HR PCP: 19.80;                

STUTTGART      CLOUDY    66  63  88 SE12      29.79F                  
6HR MIN TEMP:  61; 6HR MAX TEMP:  68; 6HR PCP:  0.47;                

PINE BLUFF     CLOUDY    67  66  97 S6        29.81S                  
6HR MIN TEMP:  64; 6HR MAX TEMP:  69; 6HR PCP:  0.14;                

MONTICELLO     CLOUDY    70  68  93 E12       29.77F                  
6HR MIN TEMP:  70; 6HR MAX TEMP:  76; 6HR PCP:  0.04;                



...NORTH MISSISSIPPI...
  
CITY           SKY/WX    TMP DP  RH WIND       PRES   REMARKS
TUPELO         CLOUDY    65  61  87 NE9       29.90F                  
6HR MIN TEMP:  64; 6HR MAX TEMP:  77; 6HR PCP:  1.10;                

OXFORD         CLOUDY    63  61  94 SE7       29.89F                  
BATESVILLE     FAIR      66  63  90 E3        29.87F                  
6HR MIN TEMP:  64; 6HR MAX TEMP:  67; 6HR PCP:  0.70;                

OLIVE BRANCH   MOCLDY    63  63 100 SE12      29.86F                  
TUNICA         CLOUDY    64  63  94 E13       29.85F                  
CORINTH        CLOUDY    64  61  88 SE9       29.90F                  
GREENWOOD      CLOUDY    69  66  90 E13       29.84F                  
6HR MIN TEMP:  69; 6HR MAX TEMP:  79; 6HR PCP:  0.35;                

COLUMBUS       CLOUDY    64  63  94 E8        29.92F                  
6HR MIN TEMP:  65; 6HR MAX TEMP:  83; 6HR PCP:  1.73;                

GOLDEN TRIANGL TSTM      64  63  94 E9        29.90F                  


...SOUTHEAST MISSOURI...
  
CITY           SKY/WX    TMP DP  RH WIND       PRES   REMARKS
KENNETT        FAIR      66  63  88 E12       29.85F FOG              
WEST PLAINS    CLOUDY    59  56  89 E10       29.85F                  
6HR MIN TEMP:  56; 6HR MAX TEMP:  60; 6HR PCP:  0.01;                

POPLAR BLUFF   CLOUDY    62  58  86 E7        29.89F                  
6HR MIN TEMP:  56; 6HR MAX TEMP:  62; 6HR PCP:  0.20;                

CAPE GIRARDEAU CLOUDY    61  57  87 NE8       29.93F                  
6HR MIN TEMP:  59; 6HR MAX TEMP:  62; 6HR PCP:  0.11;                



...NORTHWEST ALABAMA...
  
CITY           SKY/WX    TMP DP  RH WIND       PRES   REMARKS


...MIDDLE TENNESSEE...
  
CITY           SKY/WX    TMP DP  RH WIND       PRES   REMARKS
NASHVILLE      CLOUDY    68  61  78 SE6       29.95F                  
6HR MIN TEMP:  68; 6HR MAX TEMP:  81; 6HR PCP: TRACE;                

CLARKSVILLE    MOCLDY    64  60  87 SE3       29.95F                  
6HR MIN TEMP:  64; 6HR MAX TEMP:  70; 6HR PCP:  0.05;                

COLUMBIA         N/A    N/A N/A N/A SE3       29.95F                  


...WESTERN KENTUCKY...
  
CITY           SKY/WX    TMP DP  RH WIND       PRES   REMARKS
PADUCAH        CLOUDY    62  58  86 E8        29.93F                  
6HR MIN TEMP:  60; 6HR MAX TEMP:  63; 6HR PCP:  0.15;                

FORT CAMPBELL  MOCLDY    64  61  90 E6        29.94F                  
6HR MIN TEMP:  64; 6HR MAX TEMP:  69; 6HR PCP:  0.04;                



...CENTRAL ARKANSAS...
  
CITY           SKY/WX    TMP DP  RH WIND       PRES   REMARKS
LITTLE ROCK    LGT RAIN  70  66  87 S10       29.79F                  
6HR MIN TEMP:  64; 6HR MAX TEMP:  70; 6HR PCP:  0.11;                



SKY/WX REPORTED AS FAIR MEANS FEW OR NO CLOUDS BELOW
12 THOUSAND FEET.

  

Return to Home page


Western Regional Climate Center, wrcc@dri.edu